 day,  time,  air_temp(C),  RH(%),  ground_temp10cm(C),  ground_temp20cm(C),  ground_temp40cm(C),  precipitation(mm/h),  Solar_Radiation(MJ/m2h),  lack, 
 09/10/01, 01:00,  11.8, -9999,  16.3,  17.0,  17.0,   0.0,  0.00, 
 09/10/01, 02:00,  11.8, -9999,  16.1,  16.9,  17.0,   0.0,  0.00, 
 09/10/01, 03:00,  11.4, -9999,  16.0,  16.9,  17.0,   0.0,  0.00, 
 09/10/01, 04:00,  10.4, -9999,  15.9,  16.8,  17.0,   0.0,  0.00, 
 09/10/01, 05:00,  10.7, -9999,  15.7,  16.8,  17.0,   0.0,  0.00, 
 09/10/01, 06:00,  12.5, -9999,  15.5,  16.7,  17.0,   0.0,  0.00, 
 09/10/01, 07:00,  14.4, -9999,  15.3,  16.6,  17.0,   0.0,  0.17, 
 09/10/01, 08:00,  12.5, -9999,  15.2,  16.6,  17.0,   0.0,  0.93, 
 09/10/01, 09:00,  14.3, -9999,  15.3,  16.5,  17.0,   0.0,  1.66, 
 09/10/01, 10:00,  16.5, -9999,  15.4,  16.4,  17.0,   0.0,  1.78, 
 09/10/01, 11:00,  17.5, -9999,  16.3,  16.5,  17.0,   0.0,  2.74, 
 09/10/01, 12:00,  16.6, -9999,  17.4,  16.3,  17.0,   0.0,  1.87, 
 09/10/01, 13:00,  18.4, -9999,  18.1,  16.4,  17.0,   0.0,  1.81, 
 09/10/01, 14:00,  16.5, -9999,  18.6,  16.5,  17.0,   0.0,  1.81, 
 09/10/01, 15:00,  17.5, -9999,  18.8,  16.7,  17.0,   0.0,  1.67, 
 09/10/01, 16:00,  17.0, -9999,  18.8,  16.9,  16.9,   0.0,  1.29, 
 09/10/01, 17:00,  15.8, -9999,  18.7,  17.0,  16.9,   0.0,  0.40, 
 09/10/01, 18:00,  14.8, -9999,  18.5,  17.2,  16.9,   0.0,  0.11, 
 09/10/01, 19:00,  14.5, -9999,  18.3,  17.3,  16.9,   0.0,  0.00, 
 09/10/01, 20:00,  14.1, -9999,  18.1,  17.3,  17.0,   0.0,  0.00, 
 09/10/01, 21:00,  13.7, -9999,  17.8,  17.4,  16.9,   0.0,  0.00, 
 09/10/01, 22:00,  13.3, -9999,  17.6,  17.4,  16.9,   0.0,  0.00, 
 09/10/01, 23:00,  13.9, -9999,  17.4,  17.4,  17.0,   0.0,  0.00, 
 09/10/02, 00:00,  13.2, -9999,  17.2,  17.3,  16.9,   0.0,  0.00, 
 09/10/02, 01:00,  12.8, -9999,  17.0,  17.3,  17.0,   0.0,  0.00, 
 09/10/02, 02:00,  12.9, -9999,  16.9,  17.3,  16.9,   0.0,  0.00, 
 09/10/02, 03:00,  13.0, -9999,  16.7,  17.2,  17.0,   0.0,  0.00, 
 09/10/02, 04:00,  12.9, -9999,  16.6,  17.2,  17.0,   0.0,  0.00, 
 09/10/02, 05:00,  12.9, -9999,  16.5,  17.1,  17.0,   0.0,  0.00, 
 09/10/02, 06:00,  12.6, -9999,  16.5,  17.1,  17.0,   0.0,  0.00, 
 09/10/02, 07:00,  13.0, -9999,  16.4,  17.0,  17.0,   0.0,  0.06, 
 09/10/02, 08:00,  13.6, -9999,  16.4,  17.0,  17.0,   0.0,  0.17, 
 09/10/02, 09:00,  13.8, -9999,  16.4,  16.9,  17.0,   0.0,  0.38, 
 09/10/02, 10:00,  14.4, -9999,  16.4,  16.9,  17.0,   0.5,  0.36, 
 09/10/02, 11:00,  14.7, -9999,  16.5,  16.8,  17.0,   2.5,  0.43, 
 09/10/02, 12:00,  15.6, -9999,  16.7,  16.8,  17.0,   1.5,  0.67, 
 09/10/02, 13:00,  15.4, -9999,  16.8,  16.8,  17.0,   2.5,  0.16, 
 09/10/02, 14:00,  15.6, -9999,  16.9,  16.8,  17.0,   2.0,  0.12, 
 09/10/02, 15:00,  15.3, -9999,  16.8,  16.8,  17.0,   3.5,  0.08, 
 09/10/02, 16:00,  15.3, -9999,  16.7,  16.8,  16.9,   9.5,  0.00, 
 09/10/02, 17:00,  15.5, -9999,  16.6,  16.8,  16.9,   9.0,  0.00, 
 09/10/02, 18:00,  15.5, -9999,  16.5,  16.8,  16.9,   1.5,  0.00, 
 09/10/02, 19:00,  15.4, -9999,  16.5,  16.8,  16.9,   0.5,  0.00, 
 09/10/02, 20:00,  15.4, -9999,  16.4,  16.8,  16.9,   4.5,  0.00, 
 09/10/02, 21:00,  15.4, -9999,  16.4,  16.7,  16.9,   0.5,  0.00, 
 09/10/02, 22:00,  15.4, -9999,  16.4,  16.7,  16.9,   1.0,  0.00, 
 09/10/02, 23:00,  15.4, -9999,  16.3,  16.7,  16.9,   0.5,  0.00, 
 09/10/03, 00:00,  15.3, -9999,  16.3,  16.7,  16.9,   0.0,  0.00, 
 09/10/03, 01:00,  15.4, -9999,  16.3,  16.6,  16.9,   0.0,  0.00, 
 09/10/03, 02:00,  15.4, -9999,  16.3,  16.6,  16.9,   1.0,  0.00, 
 09/10/03, 03:00,  15.2, -9999,  16.3,  16.6,  16.9,   0.0,  0.00, 
 09/10/03, 04:00,  15.1, -9999,  16.2,  16.6,  16.9,   2.0,  0.00, 
 09/10/03, 05:00,  14.3, -9999,  16.2,  16.6,  16.9,   5.0,  0.00, 
 09/10/03, 06:00,  10.8, -9999,  16.1,  16.5,  16.8,   2.5,  0.00, 
 09/10/03, 07:00,  10.5, -9999,  15.9,  16.5,  16.8,   0.0,  0.01, 
 09/10/03, 08:00,   9.9, -9999,  15.8,  16.5,  16.8,   1.0,  0.23, 
 09/10/03, 09:00,  10.9, -9999,  15.7,  16.4,  16.8,   0.5,  0.60, 
 09/10/03, 10:00,  13.4, -9999,  15.8,  16.4,  16.8,   0.0,  1.37, 
 09/10/03, 11:00,  14.3, -9999,  16.3,  16.4,  16.8,   0.0,  2.65, 
 09/10/03, 12:00,  14.8, -9999,  17.4,  16.4,  16.8,   0.0,  2.69, 
 09/10/03, 13:00,  14.9, -9999,  18.4,  16.4,  16.8,   0.0,  2.11, 
 09/10/03, 14:00,  14.8, -9999,  18.9,  16.5,  16.8,   0.0,  1.83, 
 09/10/03, 15:00,  14.6, -9999,  18.9,  16.7,  16.8,   0.0,  2.16, 
 09/10/03, 16:00,  13.5, -9999,  18.7,  16.9,  16.9,   0.0,  1.37, 
 09/10/03, 17:00,  12.7, -9999,  18.2,  17.0,  16.8,   0.0,  0.58, 
 09/10/03, 18:00,  11.3, -9999,  17.8,  17.1,  16.8,   0.0,  0.08, 
 09/10/03, 19:00,   9.8, -9999,  17.4,  17.1,  16.8,   0.0,  0.00, 
 09/10/03, 20:00,  10.1, -9999,  17.1,  17.1,  16.8,   0.0,  0.00, 
 09/10/03, 21:00,  10.7, -9999,  16.7,  17.1,  16.8,   0.0,  0.00, 
 09/10/03, 22:00,   9.8, -9999,  16.5,  17.1,  16.8,   0.0,  0.00, 
 09/10/03, 23:00,  10.8, -9999,  16.2,  17.0,  16.8,   0.0,  0.00, 
 09/10/04, 00:00,   8.0, -9999,  16.0,  16.9,  16.8,   0.0,  0.00, 
 09/10/04, 01:00,   7.4, -9999,  15.7,  16.8,  16.8,   0.0,  0.00, 
 09/10/04, 02:00,   6.3, -9999,  15.4,  16.7,  16.8,   0.0,  0.00, 
 09/10/04, 03:00,   6.3, -9999,  15.1,  16.6,  16.8,   0.0,  0.00, 
 09/10/04, 04:00,   6.2, -9999,  14.8,  16.5,  16.8,   0.0,  0.00, 
 09/10/04, 05:00,   7.6, -9999,  14.5,  16.4,  16.8,   0.0,  0.00, 
 09/10/04, 06:00,   7.8, -9999,  14.2,  16.3,  16.8,   0.0,  0.00, 
 09/10/04, 07:00,   9.7, -9999,  14.0,  16.2,  16.8,   0.0,  0.15, 
 09/10/04, 08:00,  11.2, -9999,  13.8,  16.0,  16.8,   0.0,  0.90, 
 09/10/04, 09:00,  12.1, -9999,  13.8,  15.9,  16.8,   0.0,  1.66, 
 09/10/04, 10:00,  14.3, -9999,  13.9,  15.8,  16.8,   0.0,  2.28, 
 09/10/04, 11:00,  15.5, -9999,  14.7,  15.7,  16.8,   0.0,  2.74, 
 09/10/04, 12:00,  16.5, -9999,  16.0,  15.6,  16.7,   0.0,  2.88, 
 09/10/04, 13:00,  16.6, -9999,  17.4,  15.7,  16.8,   0.0,  2.87, 
 09/10/04, 14:00,  16.5, -9999,  18.3,  15.8,  16.7,   0.0,  2.59, 
 09/10/04, 15:00,  16.0, -9999,  18.3,  16.0,  16.7,   0.0,  2.07, 
 09/10/04, 16:00,  15.0, -9999,  18.1,  16.2,  16.7,   0.0,  1.36, 
 09/10/04, 17:00,  13.8, -9999,  17.7,  16.5,  16.6,   0.0,  0.64, 
 09/10/04, 18:00,  10.8, -9999,  17.3,  16.5,  16.6,   0.0,  0.08, 
 09/10/04, 19:00,   9.3, -9999,  16.8,  16.6,  16.6,   0.0,  0.00, 
 09/10/04, 20:00,   8.9, -9999,  16.4,  16.6,  16.6,   0.0,  0.00, 
 09/10/04, 21:00,   8.7, -9999,  16.0,  16.6,  16.6,   0.0,  0.00, 
 09/10/04, 22:00,  11.7, -9999,  15.7,  16.6,  16.6,   0.0,  0.00, 
 09/10/04, 23:00,  12.1, -9999,  15.4,  16.5,  16.6,   0.0,  0.00, 
 09/10/05, 00:00,   9.6, -9999,  15.1,  16.5,  16.6,   0.0,  0.00, 
 09/10/05, 01:00,   9.5, -9999,  14.9,  16.3,  16.6,   0.0,  0.00, 
 09/10/05, 02:00,   9.9, -9999,  14.6,  16.2,  16.6,   0.0,  0.00, 
 09/10/05, 03:00,   9.9, -9999,  14.4,  16.1,  16.6,   0.0,  0.00, 
 09/10/05, 04:00,   9.1, -9999,  14.3,  16.0,  16.6,   0.0,  0.00, 
 09/10/05, 05:00,   9.6, -9999,  14.1,  15.9,  16.6,   0.0,  0.00, 
 09/10/05, 06:00,   9.5, -9999,  14.0,  15.8,  16.6,   0.0,  0.00, 
 09/10/05, 07:00,   9.5, -9999,  13.8,  15.7,  16.6,   0.0,  0.08, 
 09/10/05, 08:00,  11.1, -9999,  13.8,  15.6,  16.6,   0.0,  0.48, 
 09/10/05, 09:00,  12.6, -9999,  13.9,  15.5,  16.6,   0.0,  1.04, 
 09/10/05, 10:00,  12.6, -9999,  14.2,  15.5,  16.6,   0.0,  1.00, 
 09/10/05, 11:00,  14.0, -9999,  14.5,  15.4,  16.5,   0.0,  1.11, 
 09/10/05, 12:00,  14.2, -9999,  14.9,  15.4,  16.5,   0.0,  1.35, 
 09/10/05, 13:00,  14.2, -9999,  15.3,  15.4,  16.5,   0.0,  1.12, 
 09/10/05, 14:00,  14.9, -9999,  15.6,  15.4,  16.5,   0.0,  0.92, 
 09/10/05, 15:00,  13.9, -9999,  15.8,  15.5,  16.5,   0.0,  0.80, 
 09/10/05, 16:00,  13.4, -9999,  15.9,  15.5,  16.4,   0.0,  0.48, 
 09/10/05, 17:00,  12.1, -9999,  15.9,  15.6,  16.4,   0.0,  0.19, 
 09/10/05, 18:00,  11.1, -9999,  15.7,  15.7,  16.4,   0.0,  0.00, 
 09/10/05, 19:00,  10.5, -9999,  15.6,  15.7,  16.4,   0.0,  0.00, 
 09/10/05, 20:00,  10.3, -9999,  15.4,  15.7,  16.4,   0.0,  0.00, 
 09/10/05, 21:00,   9.9, -9999,  15.2,  15.7,  16.5,   0.0,  0.00, 
 09/10/05, 22:00,  10.0, -9999,  15.0,  15.7,  16.3,   0.0,  0.00, 
 09/10/05, 23:00,  10.7, -9999,  14.9,  15.7,  16.3,   0.0,  0.00, 
 09/10/06, 00:00,  10.1, -9999,  14.7,  15.7,  16.3,   0.0,  0.00, 
 09/10/06, 01:00,   9.7, -9999,  14.6,  15.6,  16.3,   0.0,  0.00, 
 09/10/06, 02:00,   8.6, -9999,  14.5,  15.6,  16.3,   0.5,  0.00, 
 09/10/06, 03:00,   8.9, -9999,  14.4,  15.5,  16.3,   1.0,  0.00, 
 09/10/06, 04:00,   8.9, -9999,  14.2,  15.5,  16.3,   1.0,  0.00, 
 09/10/06, 05:00,   9.5, -9999,  14.1,  15.4,  16.3,   0.5,  0.00, 
 09/10/06, 06:00,   9.1, -9999,  14.0,  15.4,  16.3,   0.5,  0.00, 
 09/10/06, 07:00,  10.0, -9999,  14.0,  15.3,  16.3,   0.0,  0.06, 
 09/10/06, 08:00,  10.4, -9999,  13.9,  15.2,  16.3,   0.0,  0.26, 
 09/10/06, 09:00,  11.8, -9999,  14.0,  15.2,  16.2,   0.0,  0.49, 
 09/10/06, 10:00,  11.5, -9999,  14.2,  15.1,  16.2,   0.0,  0.57, 
 09/10/06, 11:00,  12.0, -9999,  14.4,  15.1,  16.2,   0.0,  0.75, 
 09/10/06, 12:00,  12.9, -9999,  14.7,  15.1,  16.2,   0.0,  0.98, 
 09/10/06, 13:00,  13.3, -9999,  15.0,  15.1,  16.2,   0.0,  0.95, 
 09/10/06, 14:00,  12.0, -9999,  15.2,  15.1,  16.2,   0.0,  0.62, 
 09/10/06, 15:00,  12.6, -9999,  15.4,  15.2,  16.2,   0.0,  0.54, 
 09/10/06, 16:00,  12.4, -9999,  15.4,  15.2,  16.1,   0.0,  0.21, 
 09/10/06, 17:00,  12.0, -9999,  15.4,  15.3,  16.1,   0.0,  0.10, 
 09/10/06, 18:00,  11.5, -9999,  15.3,  15.3,  16.1,   0.0,  0.00, 
 09/10/06, 19:00,  11.3, -9999,  15.2,  15.4,  16.1,   0.0,  0.00, 
 09/10/06, 20:00,  11.0, -9999,  15.0,  15.4,  16.1,   0.0,  0.00, 
 09/10/06, 21:00,  11.1, -9999,  14.9,  15.4,  16.1,   0.0,  0.00, 
 09/10/06, 22:00,  11.0, -9999,  14.9,  15.4,  16.1,   0.0,  0.00, 
 09/10/06, 23:00,  11.0, -9999,  14.8,  15.4,  16.1,   0.0,  0.00, 
 09/10/07, 00:00,  10.8, -9999,  14.7,  15.4,  16.1,   0.0,  0.00, 
 09/10/07, 01:00,  10.6, -9999,  14.6,  15.3,  16.0,   0.0,  0.00, 
 09/10/07, 02:00,  10.6, -9999,  14.6,  15.3,  16.0,   0.0,  0.00, 
 09/10/07, 03:00,  10.5, -9999,  14.5,  15.3,  16.0,   0.0,  0.00, 
 09/10/07, 04:00,  10.5, -9999,  14.4,  15.3,  16.0,   0.0,  0.00, 
 09/10/07, 05:00,  10.3, -9999,  14.4,  15.2,  16.0,   0.0,  0.00, 
 09/10/07, 06:00,  10.4, -9999,  14.3,  15.2,  16.0,   0.0,  0.00, 
 09/10/07, 07:00,  10.5, -9999,  14.3,  15.2,  16.0,   0.0,  0.00, 
 09/10/07, 08:00,  10.7, -9999,  14.2,  15.1,  16.0,   0.0,  0.14, 
 09/10/07, 09:00,  10.7, -9999,  14.3,  15.1,  16.0,   0.0,  0.25, 
 09/10/07, 10:00,  10.8, -9999,  14.3,  15.1,  16.0,   0.0,  0.23, 
 09/10/07, 11:00,  10.7, -9999,  14.3,  15.1,  16.0,   0.0,  0.21, 
 09/10/07, 12:00,  10.8, -9999,  14.4,  15.0,  16.0,   0.0,  0.22, 
 09/10/07, 13:00,  11.0, -9999,  14.4,  15.0,  16.0,   0.0,  0.17, 
 09/10/07, 14:00,  11.0, -9999,  14.4,  15.0,  15.9,   0.0,  0.15, 
 09/10/07, 15:00,  11.1, -9999,  14.4,  15.0,  15.9,   0.5,  0.13, 
 09/10/07, 16:00,  11.3, -9999,  14.4,  15.0,  15.9,   1.0,  0.12, 
 09/10/07, 17:00,  11.0, -9999,  14.4,  15.0,  15.9,   1.0,  0.00, 
 09/10/07, 18:00,  10.9, -9999,  14.3,  15.0,  15.9,   2.0,  0.00, 
 09/10/07, 19:00,  10.6, -9999,  14.1,  15.0,  15.9,   4.0,  0.00, 
 09/10/07, 20:00,  10.3, -9999,  14.0,  14.9,  15.9,   2.0,  0.00, 
 09/10/07, 21:00,  10.8, -9999,  13.9,  14.9,  15.9,   1.5,  0.00, 
 09/10/07, 22:00,  10.3, -9999,  13.7,  14.8,  15.8,   2.0,  0.00, 
 09/10/07, 23:00,  10.2, -9999,  13.6,  14.8,  15.8,   4.0,  0.00, 
 09/10/08, 00:00,  11.1, -9999,  13.4,  14.7,  15.8,   3.5,  0.00, 
 09/10/08, 01:00,  11.6, -9999,  13.2,  14.6,  15.8,   9.0,  0.00, 
 09/10/08, 02:00,  12.1, -9999,  13.0,  14.5,  15.8,   6.5,  0.00, 
 09/10/08, 03:00,  12.5, -9999,  12.7,  14.3,  15.7,   4.0,  0.00, 
 09/10/08, 04:00,  13.5, -9999,  12.7,  14.2,  15.7,   0.0,  0.00, 
 09/10/08, 05:00,  12.7, -9999,  12.6,  14.1,  15.7,   0.0,  0.00, 
 09/10/08, 06:00,  12.6, -9999,  12.6,  14.1,  15.6,   0.5,  0.00, 
 09/10/08, 07:00,  10.3, -9999,  12.6,  14.0,  15.6,   1.5,  0.00, 
 09/10/08, 08:00,   9.4, -9999,  12.5,  14.0,  15.6,   6.5,  0.00, 
 09/10/08, 09:00,   9.0, -9999,  12.4,  13.8,  15.5,   5.5,  0.04, 
 09/10/08, 10:00,   9.3, -9999,  12.3,  13.7,  15.5,   1.5,  0.26, 
 09/10/08, 11:00,  10.2, -9999,  12.4,  13.7,  15.4,   2.0,  0.42, 
 09/10/08, 12:00,  10.3, -9999,  12.4,  13.6,  15.4,   2.5,  0.31, 
 09/10/08, 13:00,   9.6, -9999,  12.5,  13.5,  15.3,   3.5,  0.42, 
 09/10/08, 14:00,   8.3, -9999,  12.5,  13.5,  15.3,   0.5,  0.42, 
 09/10/08, 15:00,   8.7, -9999,  12.6,  13.5,  15.2,   0.0,  0.45, 
 09/10/08, 16:00,   8.5, -9999,  12.6,  13.5,  15.2,   0.5,  0.21, 
 09/10/08, 17:00,   8.1, -9999,  12.5,  13.4,  15.2,   1.0,  0.10, 
 09/10/08, 18:00,   7.9, -9999,  12.4,  13.4,  15.1,   1.0,  0.00, 
 09/10/08, 19:00,   7.9, -9999,  12.3,  13.4,  15.1,   0.0,  0.00, 
 09/10/08, 20:00,   7.9, -9999,  12.2,  13.4,  15.1,   0.5,  0.00, 
 09/10/08, 21:00,   7.8, -9999,  12.2,  13.5,  15.0,   0.5,  0.00, 
 09/10/08, 22:00,   7.5, -9999,  12.0,  13.3,  15.0,   0.5,  0.00, 
 09/10/08, 23:00,   7.2, -9999,  12.0,  13.3,  15.0,   0.0,  0.00, 
 09/10/09, 00:00,   7.3, -9999,  11.9,  13.3,  15.0,   0.0,  0.00, 
 09/10/09, 01:00,   7.4, -9999,  11.9,  13.2,  14.9,   0.0,  0.00, 
 09/10/09, 02:00,   7.2, -9999,  11.7,  13.2,  14.9,   0.0,  0.00, 
 09/10/09, 03:00,   7.2, -9999,  11.7,  13.2,  14.9,   0.0,  0.00, 
 09/10/09, 04:00,   6.9, -9999,  11.6,  13.1,  14.9,   0.0,  0.00, 
 09/10/09, 05:00,   5.9, -9999,  11.5,  13.1,  14.9,   0.5,  0.00, 
 09/10/09, 06:00,   6.0, -9999,  11.4,  13.0,  14.8,   0.0,  0.00, 
 09/10/09, 07:00,   5.6, -9999,  11.4,  13.0,  14.8,   0.0,  0.07, 
 09/10/09, 08:00,   6.4, -9999,  11.3,  13.1,  14.8,   0.0,  0.36, 
 09/10/09, 09:00,   7.9, -9999,  11.2,  12.9,  14.8,   0.0,  1.58, 
 09/10/09, 10:00,   7.8, -9999,  11.3,  12.9,  14.8,   0.0,  2.07, 
 09/10/09, 11:00,   8.7, -9999,  11.9,  12.8,  14.8,   0.0,  1.78, 
 09/10/09, 12:00,   9.6, -9999,  12.4,  12.8,  14.7,   0.0,  1.33, 
 09/10/09, 13:00,   9.3, -9999,  12.7,  12.8,  14.7,   0.0,  1.32, 
 09/10/09, 14:00,  10.1, -9999,  13.0,  12.9,  14.7,   0.0,  1.92, 
 09/10/09, 15:00,   8.9, -9999,  13.3,  13.0,  14.7,   0.0,  1.21, 
 09/10/09, 16:00,   8.2, -9999,  13.4,  13.0,  14.7,   0.0,  0.39, 
 09/10/09, 17:00,   6.7, -9999,  13.3,  13.1,  14.6,   0.0,  0.39, 
 09/10/09, 18:00,   6.2, -9999,  13.1,  13.2,  14.6,   0.0,  0.03, 
 09/10/09, 19:00,   4.8, -9999,  12.9,  13.3,  14.6,   0.0,  0.00, 
 09/10/09, 20:00,   3.7, -9999,  12.5,  13.3,  14.6,   0.0,  0.00, 
 09/10/09, 21:00,   3.9, -9999,  12.1,  13.3,  14.6,   0.0,  0.00, 
 09/10/09, 22:00,   4.6, -9999,  11.9,  13.3,  14.6,   0.0,  0.00, 
 09/10/09, 23:00,   3.3, -9999,  11.8,  13.2,  14.6,   0.0,  0.00, 
 09/10/10, 00:00,   3.0, -9999,  11.5,  13.2,  14.6,   0.0,  0.00, 
 09/10/10, 01:00,   2.8, -9999,  11.3,  13.1,  14.6,   0.0,  0.00, 
 09/10/10, 02:00,   2.7, -9999,  11.0,  13.0,  14.5,   0.0,  0.00, 
 09/10/10, 03:00,   2.6, -9999,  10.8,  13.0,  14.5,   0.0,  0.00, 
 09/10/10, 04:00,   4.3, -9999,  10.6,  12.9,  14.5,   0.0,  0.00, 
 09/10/10, 05:00,   3.5, -9999,  10.4,  12.8,  14.5,   0.0,  0.00, 
 09/10/10, 06:00,   4.8, -9999,  10.4,  12.7,  14.5,   0.0,  0.00, 
 09/10/10, 07:00,   5.3, -9999,  10.2,  12.6,  14.5,   0.0,  0.05, 
 09/10/10, 08:00,   7.2, -9999,  10.1,  12.5,  14.5,   0.0,  0.71, 
 09/10/10, 09:00,   7.4, -9999,  10.1,  12.4,  14.5,   0.0,  1.55, 
 09/10/10, 10:00,   8.1, -9999,  10.2,  12.4,  14.5,   0.0,  1.90, 
 09/10/10, 11:00,   9.7, -9999,  10.8,  12.3,  14.4,   0.0,  2.04, 
 09/10/10, 12:00,  10.2, -9999,  11.7,  12.2,  14.5,   0.0,  2.56, 
 09/10/10, 13:00,  10.9, -9999,  12.5,  12.3,  14.4,   0.0,  2.09, 
 09/10/10, 14:00,  10.2, -9999,  13.3,  12.3,  14.4,   0.0,  1.69, 
 09/10/10, 15:00,  10.5, -9999,  13.5,  12.5,  14.5,   0.0,  1.43, 
 09/10/10, 16:00,   9.8, -9999,  13.5,  12.6,  14.3,   0.0,  0.92, 
 09/10/10, 17:00,   7.9, -9999,  13.4,  12.8,  14.3,   0.0,  0.34, 
 09/10/10, 18:00,   6.9, -9999,  13.2,  12.9,  14.3,   0.0,  0.01, 
 09/10/10, 19:00,   5.7, -9999,  12.7,  13.1,  14.4,   0.0,  0.00, 
 09/10/10, 20:00,   4.8, -9999,  12.4,  13.0,  14.3,   0.0,  0.00, 
 09/10/10, 21:00,   5.2, -9999,  12.1,  13.0,  14.3,   0.0,  0.00, 
 09/10/10, 22:00,   5.1, -9999,  11.9,  13.0,  14.3,   0.0,  0.00, 
 09/10/10, 23:00,   4.4, -9999,  11.6,  13.0,  14.2,   0.0,  0.00, 
 09/10/11, 00:00,   5.2, -9999,  11.4,  12.9,  14.2,   0.0,  0.00, 
 09/10/11, 01:00,   4.7, -9999,  11.3,  12.9,  14.2,   0.0,  0.00, 
 09/10/11, 02:00,   3.4, -9999,  11.2,  12.8,  14.2,   0.0,  0.00, 
 09/10/11, 03:00,   4.0, -9999,  10.9,  12.7,  14.2,   0.0,  0.00, 
 09/10/11, 04:00,   3.1, -9999,  10.8,  12.7,  14.2,   0.0,  0.00, 
 09/10/11, 05:00,   2.6, -9999,  10.6,  12.6,  14.2,   0.0,  0.00, 
 09/10/11, 06:00,   2.8, -9999,  10.4,  12.5,  14.2,   0.0,  0.00, 
 09/10/11, 07:00,   3.5, -9999,  10.2,  12.4,  14.2,   0.0,  0.09, 
 09/10/11, 08:00,   6.5, -9999,  10.1,  12.4,  14.2,   0.0,  0.83, 
 09/10/11, 09:00,   7.4, -9999,  10.0,  12.3,  14.2,   0.0,  1.58, 
 09/10/11, 10:00,   8.6, -9999,  10.1,  12.2,  14.2,   0.0,  2.28, 
 09/10/11, 11:00,   9.9, -9999,  10.8,  12.1,  14.3,   0.0,  2.39, 
 09/10/11, 12:00,   9.7, -9999,  11.8,  12.1,  14.2,   0.0,  2.17, 
 09/10/11, 13:00,  10.6, -9999,  12.6,  12.1,  14.1,   0.0,  1.40, 
 09/10/11, 14:00,  10.3, -9999,  13.0,  12.2,  14.1,   0.0,  0.96, 
 09/10/11, 15:00,  10.0, -9999,  13.1,  12.3,  14.1,   0.0,  0.97, 
 09/10/11, 16:00,  10.1, -9999,  13.1,  12.4,  14.2,   0.0,  1.14, 
 09/10/11, 17:00,   8.0, -9999,  13.0,  12.5,  14.0,   0.0,  0.70, 
 09/10/11, 18:00,   6.1, -9999,  12.8,  12.6,  14.0,   0.0,  0.03, 
 09/10/11, 19:00,   4.8, -9999,  12.4,  12.7,  14.0,   0.0,  0.00, 
 09/10/11, 20:00,   4.8, -9999,  12.1,  12.7,  14.0,   0.0,  0.00, 
 09/10/11, 21:00,   3.3, -9999,  11.8,  12.7,  14.0,   0.0,  0.00, 
 09/10/11, 22:00,   2.8, -9999,  11.5,  12.7,  14.0,   0.0,  0.00, 
 09/10/11, 23:00,   2.2, -9999,  11.2,  12.7,  14.0,   0.0,  0.00, 
 09/10/12, 00:00,   2.7, -9999,  10.9,  12.6,  14.0,   0.0,  0.00, 
 09/10/12, 01:00,   1.9, -9999,  10.7,  12.5,  14.0,   0.0,  0.00, 
 09/10/12, 02:00,   2.2, -9999,  10.5,  12.5,  14.0,   0.0,  0.00, 
 09/10/12, 03:00,   3.8, -9999,  10.3,  12.4,  14.0,   0.0,  0.00, 
 09/10/12, 04:00,   4.2, -9999,  10.1,  12.3,  14.0,   0.0,  0.00, 
 09/10/12, 05:00,   1.6, -9999,  10.0,  12.2,  13.9,   0.0,  0.00, 
 09/10/12, 06:00,   2.4, -9999,   9.8,  12.1,  13.9,   0.0,  0.00, 
 09/10/12, 07:00,   2.3, -9999,   9.6,  12.0,  13.9,   0.0,  0.09, 
 09/10/12, 08:00,   7.0, -9999,   9.5,  11.9,  13.9,   0.0,  0.80, 
 09/10/12, 09:00,   8.8, -9999,   9.5,  11.8,  13.9,   0.0,  1.55, 
 09/10/12, 10:00,  10.1, -9999,   9.6,  11.8,  13.9,   0.0,  2.17, 
 09/10/12, 11:00,  10.8, -9999,  10.3,  11.7,  13.9,   0.0,  2.57, 
 09/10/12, 12:00,  10.5, -9999,  11.3,  11.6,  13.9,   0.0,  2.62, 
 09/10/12, 13:00,  10.7, -9999,  12.4,  11.7,  13.8,   0.0,  2.29, 
 09/10/12, 14:00,  13.2, -9999,  13.2,  11.8,  13.8,   0.0,  1.50, 
 09/10/12, 15:00,  12.4, -9999,  13.4,  11.9,  13.9,   0.0,  1.98, 
 09/10/12, 16:00,  11.9, -9999,  13.4,  12.1,  13.8,   0.0,  1.36, 
 09/10/12, 17:00,  11.1, -9999,  13.3,  12.3,  13.8,   0.0,  0.72, 
 09/10/12, 18:00,   8.3, -9999,  13.1,  12.4,  13.7,   0.0,  0.05, 
 09/10/12, 19:00,   8.6, -9999,  12.8,  12.5,  13.7,   0.0,  0.00, 
 09/10/12, 20:00,   7.5, -9999,  12.5,  12.6,  13.8,   0.0,  0.00, 
 09/10/12, 21:00,   6.9, -9999,  12.3,  12.6,  13.8,   0.0,  0.00, 
 09/10/12, 22:00,   6.7, -9999,  12.0,  12.6,  13.8,   0.0,  0.00, 
 09/10/12, 23:00,   7.0, -9999,  11.8,  12.6,  13.7,   0.0,  0.00, 
 09/10/13, 00:00,   7.2, -9999,  11.6,  12.6,  13.8,   0.0,  0.00, 
 09/10/13, 01:00,   6.8, -9999,  11.5,  12.6,  13.7,   0.0,  0.00, 
 09/10/13, 02:00,   4.9, -9999,  11.3,  12.5,  13.8,   0.0,  0.00, 
 09/10/13, 03:00,   3.9, -9999,  11.1,  12.5,  13.7,   0.0,  0.00, 
 09/10/13, 04:00,   3.8, -9999,  10.9,  12.4,  13.7,   0.0,  0.00, 
 09/10/13, 05:00,   3.7, -9999,  10.7,  12.4,  13.7,   0.0,  0.00, 
 09/10/13, 06:00,   4.2, -9999,  10.5,  12.3,  13.7,   0.0,  0.00, 
 09/10/13, 07:00,   5.9, -9999,  10.3,  12.2,  13.7,   0.0,  0.08, 
 09/10/13, 08:00,   9.7, -9999,  10.2,  12.1,  13.7,   0.0,  0.99, 
 09/10/13, 09:00,   9.6, -9999,  10.3,  12.1,  13.8,   0.0,  1.64, 
 09/10/13, 10:00,  11.2, -9999,  10.5,  12.1,  13.8,   0.0,  2.00, 
 09/10/13, 11:00,  11.5, -9999,  11.1,  11.9,  13.7,   0.0,  1.47, 
 09/10/13, 12:00,  12.5, -9999,  11.6,  11.9,  13.7,   0.0,  1.93, 
 09/10/13, 13:00,  11.9, -9999,  12.4,  11.9,  13.6,   0.0,  2.07, 
 09/10/13, 14:00,  12.1, -9999,  13.1,  12.1,  13.7,   0.0,  2.20, 
 09/10/13, 15:00,  12.6, -9999,  13.4,  12.1,  13.7,   0.0,  1.86, 
 09/10/13, 16:00,  11.7, -9999,  13.3,  12.3,  13.7,   0.0,  1.03, 
 09/10/13, 17:00,  10.5, -9999,  13.3,  12.4,  13.7,   0.0,  0.22, 
 09/10/13, 18:00,   9.5, -9999,  13.1,  12.5,  13.7,   0.0,  0.00, 
 09/10/13, 19:00,   8.8, -9999,  12.8,  12.6,  13.7,   0.0,  0.00, 
 09/10/13, 20:00,   8.0, -9999,  12.6,  12.7,  13.7,   0.0,  0.00, 
 09/10/13, 21:00,   8.2, -9999,  12.4,  12.7,  13.6,   0.0,  0.00, 
 09/10/13, 22:00,   6.9, -9999,  12.1,  12.7,  13.7,   0.0,  0.00, 
 09/10/13, 23:00,   5.9, -9999,  11.9,  12.7,  13.6,   0.0,  0.00, 
 09/10/14, 00:00,   5.9, -9999,  11.6,  12.7,  13.7,   0.0,  0.00, 
 09/10/14, 01:00,   6.1, -9999,  11.4,  12.6,  13.6,   0.0,  0.00, 
 09/10/14, 02:00,   4.6, -9999,  11.2,  12.6,  13.6,   0.0,  0.00, 
 09/10/14, 03:00,   7.0, -9999,  11.0,  12.5,  13.6,   0.0,  0.00, 
 09/10/14, 04:00,   4.8, -9999,  10.8,  12.4,  13.6,   0.0,  0.00, 
 09/10/14, 05:00,   5.8, -9999,  10.6,  12.4,  13.6,   0.0,  0.00, 
 09/10/14, 06:00,   4.5, -9999,  10.5,  12.3,  13.6,   0.0,  0.00, 
 09/10/14, 07:00,   4.9, -9999,  10.3,  12.2,  13.6,   0.0,  0.11, 
 09/10/14, 08:00,   6.7, -9999,  10.2,  12.1,  13.7,   0.0,  0.48, 
 09/10/14, 09:00,   9.0, -9999,  10.3,  12.1,  13.6,   0.0,  0.79, 
 09/10/14, 10:00,  10.0, -9999,  10.5,  12.0,  13.6,   0.0,  0.86, 
 09/10/14, 11:00,  10.4, -9999,  10.9,  11.9,  13.5,   0.0,  1.03, 
 09/10/14, 12:00,  13.4, -9999,  11.3,  11.9,  13.5,   0.0,  2.53, 
 09/10/14, 13:00,  12.6, -9999,  12.3,  11.9,  13.6,   0.0,  2.17, 
 09/10/14, 14:00,  10.8, -9999,  13.1,  12.0,  13.6,   0.0,  1.04, 
 09/10/14, 15:00,  11.6, -9999,  13.3,  12.1,  13.6,   0.0,  1.52, 
 09/10/14, 16:00,  10.4, -9999,  13.2,  12.2,  13.5,   0.0,  0.97, 
 09/10/14, 17:00,   9.5, -9999,  13.1,  12.3,  13.6,   0.0,  0.22, 
 09/10/14, 18:00,   7.7, -9999,  12.8,  12.4,  13.5,   0.0,  0.01, 
 09/10/14, 19:00,   6.3, -9999,  12.6,  12.5,  13.6,   0.0,  0.00, 
 09/10/14, 20:00,   6.4, -9999,  12.3,  12.6,  13.5,   0.0,  0.00, 
 09/10/14, 21:00,   6.0, -9999,  12.1,  12.6,  13.5,   0.0,  0.00, 
 09/10/14, 22:00,   6.4, -9999,  11.9,  12.6,  13.4,   0.0,  0.00, 
 09/10/14, 23:00,   5.4, -9999,  11.7,  12.6,  13.5,   0.0,  0.00, 
 09/10/15, 00:00,   6.0, -9999,  11.5,  12.5,  13.5,   0.0,  0.00, 
 09/10/15, 01:00,   5.4, -9999,  11.4,  12.5,  13.5,   0.0,  0.00, 
 09/10/15, 02:00,   5.7, -9999,  11.2,  12.4,  13.4,   0.0,  0.00, 
 09/10/15, 03:00,   4.2, -9999,  11.1,  12.4,  13.5,   0.0,  0.00, 
 09/10/15, 04:00,   4.7, -9999,  10.9,  12.3,  13.4,   0.0,  0.00, 
 09/10/15, 05:00,   5.0, -9999,  10.8,  12.3,  13.4,   0.0,  0.00, 
 09/10/15, 06:00,   4.8, -9999,  10.7,  12.2,  13.5,   0.0,  0.00, 
 09/10/15, 07:00,   4.6, -9999,  10.6,  12.2,  13.4,   0.0,  0.03, 
 09/10/15, 08:00,   5.4, -9999,  10.6,  12.1,  13.5,   0.0,  0.71, 
 09/10/15, 09:00,   7.2, -9999,  10.6,  12.0,  13.5,   0.0,  1.39, 
 09/10/15, 10:00,   9.0, -9999,  10.7,  12.0,  13.5,   0.0,  2.02, 
 09/10/15, 11:00,  10.1, -9999,  11.3,  11.9,  13.5,   0.0,  2.48, 
 09/10/15, 12:00,  11.9, -9999,  12.0,  12.0,  13.5,   0.0,  2.70, 
 09/10/15, 13:00,  12.1, -9999,  13.2,  12.0,  13.5,   0.0,  2.66, 
 09/10/15, 14:00,  12.4, -9999,  14.0,  12.1,  13.5,   0.0,  2.40, 